Weather in Nova Bystrice

Czech Republic     49°01′07″N   15°06′39″E
temp.,
°C
wind,
m/s
gust,
m/s
humid.,
%
clouds,
%
prec.,
mm/h
press.,
hPa
HPBL,
m
9 march, tue
tue901:00−4ese25799 0.0 1023167
04:00−4ese268031 0.0 1022185
07:00−3ese377231 0.0 1021288
10:00+1ese365386 0.0 1020642
13:00+2ese354793 0.0 1019872
16:00+2ese2451100 0.0 1018758
19:00−1ese2665100 0.0 1019183
22:00−2sse2468100 0.0 1021140
10 march, wed
wed1001:00−3sse129499 0.1 102085
04:00−2sse1194100 0.0 102024
07:00−2sw129199 0.0 1020110
10:00+1wsw3591100 1.3 1021388
13:00+3nnw3580100 1.8 1020686
16:00+3nnw248075 0.5 1020560
19:00−1se119375 0.6 102121
22:00−1s129778 0.0 102224
11 march, thu
thu1101:00−2s229546 0.0 102138
04:00−2sse229178 0.0 101944
07:000sse248788 0.0 1018130
10:00+5sse4769100 0.0 1016603
13:00+4ssw31186100 0.2 1014870
16:00+5s2980100 0.1 1011392
19:00+5sw31284100 0.2 1011446
22:00+5sw4149399 0.1 1010569
12 march, fri
fri1201:00+5w51388100 2.1 10121023
04:00+2w3139166 0.0 1014810
07:00+2w4138633 0.0 10151088
10:00+6w6116661 0.0 10171528
13:00+7w595759 0.1 10161756
16:00+7w376199 0.1 10141396
19:00+3sw378866 0.2 1015196
22:00+2sw310940 0.1 1015292
13 march, sat
sat1301:00+2wsw3119350 0.1 1014554
04:00+2sw4129080 0.0 1013624
07:00+3wsw4108990 0.0 1014739
10:00+5wsw597696 0.0 10151004
13:00+6wsw5117597 0.1 10131409
16:00+8wsw5146093 0.1 10111820
19:00+6sw3147197 0.1 10111176
22:00+4ssw4117994 0.0 1011338